DELTA 1 DEB, 42567

Orbit data source: Space-Track

DELTA 1 DEB, 42567 is space debris in SSO originally from a launch on Sun, 23 Jul 1972 UTC launched from the Air Force Western Test Range (AFWTR). Debris objects in space refer to the collection of defunct objects orbiting the Earth. Examples of debris include non-operational satellites, rocket bodies, and fragments generated from explosions, collisions, or faulty payload assembly.

Loading next visibility...
Identifier
42567, 1972-058KA
Orbit
SSO
Country
Flag of USUS
Related business
Manufacturer
Unknown
Mission
Spacecraft
Bus & Motor
Unknown
Mass
Unknown
Launch date (UTC)
1972-07-23 (53 years ago)
Launch vehicle
Unknown
Launch site
Air Force Western Test Range (AFWTR)
Object type
Payload
Rocket body
Debris
Shape & HBR
Unknown shape, 0.1 m
Radar Cross Section
Small (<0.1 m²)

Expand to show TLE details & history
Last TLE update: 19 hours ago

TLE from 19 hours ago
0 DELTA 1 DEB
1 42567U 72058KA  25299.30362753  .00001365  00000-0  23252-3 0  9994
2 42567  98.4938  62.8063 0112918  10.4018 349.9483 14.66736159636405
Epoch: 2025-10-26T07:17Z
TLE epoch observation values (Epoch: 2025-10-26T07:17:13.418Z)
Latitude
-0.00004°
Longitude
-81.42136°
Altitude
596.122 km
Speed
7.604 km/s
True Right ascension
04h 11m 13s
True Declination
0° 00' 00"
Sunlit
Object was in full shadow at epoch
Visualization orbit readout
Latitude
Unknown
Longitude
Unknown
Altitude
Unknown
Speed
Unknown
Apparent Right ascension
Unknown
Apparent Declination
Unknown
Sunlit
N/A
Visualization observer readout
Local Sidereal Time
21:20:04
Azimuth
Unknown
Elevation
Unknown
Doppler factor
Unknown
Orbital elements
Apogee altitude
748.163 km
Perigee altitude
589.022 km
Semi-major axis
7,046.729 km
Eccentricity
0.01129
Inclination
98.4938°
RAAN
62.8063°
Arg. of periapsis
10.4018°
True anomaly
349.71928°
Mean anomaly
349.9483°
Eccentric anomaly
349.83411°
Mean motion
3.66912 °/min
Orbital period
98.12 mins
BSTAR
0.00023252
Loading maneuver chart data...
Computing Atmospheric mass density...
Loading historical data...
Loading historical data...
Loading historical data...
Loading historical data...
Loading historical data...
Loading historical data...
Loading historical data...

Documentation

Showing up to 5 results
|